Time,TemperatureF,DewpointF,PressureIn,WindDirection,WindDirectionDegrees,WindSpeedMPH,WindSpeedGustMPH,Humidity,HourlyPrecipIn,Conditions,Clouds,dailyrainin,SoftwareType,DateUTC
2013-04-23 00:03:00,54.0,38.0,30.12,ESE,107,3.0,7.0,54,0.00,,,0.00,,2013-04-23 04:03:00,
2013-04-23 00:12:00,54.0,38.0,30.12,ESE,107,3.0,7.0,54,0.00,,,0.00,,2013-04-23 04:12:00,
2013-04-23 00:23:00,54.0,38.0,30.12,ESE,117,4.0,7.0,55,0.00,,,0.00,,2013-04-23 04:23:00,
2013-04-23 00:33:00,53.0,38.0,30.12,ESE,112,7.0,13.0,57,0.00,,,0.00,,2013-04-23 04:33:00,
2013-04-23 00:43:00,53.0,38.0,30.12,ESE,112,7.0,13.0,57,0.00,,,0.00,,2013-04-23 04:43:00,
2013-04-23 00:53:00,52.0,39.0,30.12,SE,130,6.0,10.0,61,0.00,,,0.00,,2013-04-23 04:53:00,
2013-04-23 01:02:00,51.0,39.0,30.12,East,97,6.0,11.0,64,0.00,,,0.00,,2013-04-23 05:02:00,
2013-04-23 01:12:00,51.0,39.0,30.12,East,97,6.0,11.0,64,0.00,,,0.00,,2013-04-23 05:12:00,
2013-04-23 01:22:00,50.0,39.0,30.12,ESE,107,6.0,9.0,65,0.00,,,0.00,,2013-04-23 05:22:00,
2013-04-23 01:32:00,49.0,39.0,30.11,ESE,116,6.0,8.0,67,0.00,,,0.00,,2013-04-23 05:32:00,
2013-04-23 01:42:00,49.0,39.0,30.11,ESE,116,6.0,8.0,67,0.00,,,0.00,,2013-04-23 05:42:00,
2013-04-23 01:52:00,49.0,39.0,30.11,SE,126,4.0,8.0,69,0.00,,,0.00,,2013-04-23 05:52:00,
2013-04-23 02:02:00,48.0,39.0,30.10,ESE,121,4.0,7.0,70,0.00,,,0.00,,2013-04-23 06:02:00,
2013-04-23 02:12:00,48.0,39.0,30.10,ESE,121,4.0,7.0,70,0.00,,,0.00,,2013-04-23 06:12:00,
2013-04-23 02:21:00,48.0,39.0,30.10,SE,132,5.0,8.0,71,0.00,,,0.00,,2013-04-23 06:21:00,
2013-04-23 02:33:00,48.0,39.0,30.09,SE,124,5.0,8.0,72,0.00,,,0.00,,2013-04-23 06:33:00,
2013-04-23 02:42:00,48.0,39.0,30.09,SE,124,5.0,8.0,72,0.00,,,0.00,,2013-04-23 06:42:00,
2013-04-23 02:52:00,47.0,39.0,30.09,ESE,123,5.0,7.0,73,0.00,,,0.00,,2013-04-23 06:52:00,
2013-04-23 03:02:00,47.0,39.0,30.09,SE,132,4.0,7.0,74,0.00,,,0.00,,2013-04-23 07:02:00,
2013-04-23 03:11:00,47.0,39.0,30.09,SE,132,4.0,7.0,74,0.00,,,0.00,,2013-04-23 07:11:00,
2013-04-23 03:22:00,47.0,39.0,30.09,ESE,119,5.0,8.0,74,0.00,,,0.00,,2013-04-23 07:22:00,
2013-04-23 03:32:00,46.0,39.0,30.08,ESE,112,5.0,7.0,75,0.00,,,0.00,,2013-04-23 07:32:00,
2013-04-23 03:42:00,46.0,39.0,30.08,ESE,112,5.0,7.0,75,0.00,,,0.00,,2013-04-23 07:42:00,
2013-04-23 03:52:00,46.0,39.0,30.08,SE,127,5.0,8.0,75,0.00,,,0.00,,2013-04-23 07:52:00,
2013-04-23 04:02:00,46.0,39.0,30.08,ESE,123,5.0,9.0,75,0.00,,,0.00,,2013-04-23 08:02:00,
2013-04-23 04:11:00,46.0,39.0,30.08,ESE,123,5.0,9.0,75,0.00,,,0.00,,2013-04-23 08:11:00,
2013-04-23 04:21:00,46.0,39.0,30.07,ESE,113,6.0,10.0,75,0.00,,,0.00,,2013-04-23 08:21:00,
2013-04-23 04:32:00,47.0,39.0,30.06,SE,126,6.0,9.0,75,0.00,,,0.00,,2013-04-23 08:32:00,
2013-04-23 04:42:00,47.0,39.0,30.06,SE,126,6.0,9.0,75,0.00,,,0.00,,2013-04-23 08:42:00,
2013-04-23 04:52:00,47.0,39.0,30.04,SE,130,4.0,8.0,75,0.00,,,0.00,,2013-04-23 08:52:00,
2013-04-23 05:02:00,47.0,39.0,30.04,SE,129,4.0,8.0,75,0.00,,,0.00,,2013-04-23 09:02:00,
2013-04-23 05:11:00,47.0,39.0,30.04,SE,129,4.0,8.0,75,0.00,,,0.00,,2013-04-23 09:11:00,
2013-04-23 05:21:00,47.0,39.0,30.03,ESE,121,4.0,5.0,75,0.00,,,0.00,,2013-04-23 09:21:00,
2013-04-23 05:33:00,47.0,39.0,30.02,ESE,117,4.0,7.0,74,0.00,,,0.00,,2013-04-23 09:33:00,
2013-04-23 05:43:00,47.0,39.0,30.02,ESE,117,4.0,7.0,74,0.00,,,0.00,,2013-04-23 09:43:00,
2013-04-23 05:53:00,47.0,39.0,30.02,SE,126,2.0,5.0,74,0.00,,,0.00,,2013-04-23 09:53:00,
2013-04-23 06:03:00,48.0,40.0,30.03,ESE,115,2.0,4.0,74,0.00,,,0.00,,2013-04-23 10:03:00,
2013-04-23 06:13:00,48.0,40.0,30.03,ESE,115,2.0,4.0,74,0.00,,,0.00,,2013-04-23 10:13:00,
2013-04-23 06:23:00,48.0,40.0,30.04,SE,130,2.0,4.0,73,0.00,,,0.00,,2013-04-23 10:23:00,
2013-04-23 06:33:00,48.0,40.0,30.03,ESE,120,2.0,4.0,73,0.00,,,0.00,,2013-04-23 10:33:00,
2013-04-23 06:42:00,48.0,40.0,30.03,ESE,120,2.0,4.0,73,0.00,,,0.00,,2013-04-23 10:42:00,
2013-04-23 06:52:00,48.0,40.0,30.03,ESE,111,2.0,3.0,74,0.00,,,0.00,,2013-04-23 10:52:00,
2013-04-23 07:03:00,49.0,41.0,30.02,ESE,107,3.0,5.0,73,0.00,,,0.00,,2013-04-23 11:03:00,
2013-04-23 07:12:00,49.0,41.0,30.02,ESE,107,3.0,5.0,73,0.00,,,0.00,,2013-04-23 11:12:00,
2013-04-23 07:21:00,49.0,41.0,30.02,ESE,113,3.0,5.0,73,0.00,,,0.00,,2013-04-23 11:21:00,
2013-04-23 07:32:00,50.0,41.0,30.03,SE,129,4.0,8.0,72,0.00,,,0.00,,2013-04-23 11:32:00,
2013-04-23 07:42:00,50.0,41.0,30.03,SE,129,4.0,8.0,72,0.00,,,0.00,,2013-04-23 11:42:00,
2013-04-23 07:53:00,51.0,42.0,30.02,SE,134,6.0,9.0,70,0.00,,,0.00,,2013-04-23 11:53:00,
2013-04-23 08:02:00,52.0,42.0,30.01,SE,132,5.0,9.0,69,0.00,,,0.00,,2013-04-23 12:02:00,
2013-04-23 08:12:00,52.0,42.0,30.01,SE,132,5.0,9.0,69,0.00,,,0.00,,2013-04-23 12:12:00,
2013-04-23 08:22:00,52.0,43.0,30.02,SSE,148,5.0,8.0,70,0.00,,,0.00,,2013-04-23 12:22:00,
2013-04-23 08:32:00,53.0,43.0,30.03,SSE,162,4.0,9.0,68,0.00,,,0.00,,2013-04-23 12:32:00,
2013-04-23 08:42:00,53.0,43.0,30.03,SSE,162,4.0,9.0,68,0.00,,,0.00,,2013-04-23 12:42:00,
2013-04-23 08:52:00,55.0,43.0,30.03,SSE,164,6.0,11.0,65,0.00,,,0.00,,2013-04-23 12:52:00,
2013-04-23 09:01:00,55.0,43.0,30.02,South,180,6.0,12.0,63,0.00,,,0.00,,2013-04-23 13:01:00,
2013-04-23 09:11:00,55.0,43.0,30.02,South,180,6.0,12.0,63,0.00,,,0.00,,2013-04-23 13:11:00,
2013-04-23 09:22:00,56.0,44.0,30.02,SE,144,7.0,12.0,63,0.00,,,0.00,,2013-04-23 13:22:00,
2013-04-23 09:32:00,56.0,43.0,30.02,South,177,8.0,12.0,61,0.00,,,0.00,,2013-04-23 13:32:00,
2013-04-23 09:42:00,56.0,43.0,30.02,South,177,8.0,12.0,61,0.00,,,0.00,,2013-04-23 13:42:00,
2013-04-23 09:52:00,57.0,43.0,30.01,SSW,195,8.0,16.0,60,0.00,,,0.00,,2013-04-23 13:52:00,
2013-04-23 10:02:00,57.0,44.0,30.02,SSW,196,9.0,19.0,61,0.00,,,0.00,,2013-04-23 14:02:00,
2013-04-23 10:11:00,57.0,44.0,30.02,SSW,196,9.0,19.0,61,0.00,,,0.00,,2013-04-23 14:11:00,
2013-04-23 10:22:00,58.0,44.0,30.01,South,175,8.0,15.0,60,0.00,,,0.00,,2013-04-23 14:22:00,
2013-04-23 10:32:00,58.0,44.0,30.01,South,176,5.0,12.0,60,0.00,,,0.00,,2013-04-23 14:32:00,
2013-04-23 10:42:00,58.0,44.0,30.01,South,176,5.0,12.0,60,0.00,,,0.00,,2013-04-23 14:42:00,
2013-04-23 10:52:00,58.0,45.0,30.01,South,170,7.0,15.0,61,0.00,,,0.00,,2013-04-23 14:52:00,
2013-04-23 11:01:00,58.0,45.0,30.01,South,170,7.0,15.0,61,0.00,,,0.00,,2013-04-23 15:01:00,
2013-04-23 11:12:00,59.0,45.0,30.00,SE,143,7.0,13.0,60,0.00,,,0.00,,2013-04-23 15:12:00,
2013-04-23 11:22:00,60.0,46.0,30.00,South,171,7.0,13.0,59,0.00,,,0.00,,2013-04-23 15:22:00,
2013-04-23 11:32:00,61.0,46.0,29.99,South,174,9.0,15.0,57,0.00,,,0.00,,2013-04-23 15:32:00,
2013-04-23 11:42:00,61.0,46.0,29.99,South,174,9.0,15.0,57,0.00,,,0.00,,2013-04-23 15:42:00,
2013-04-23 11:53:00,61.0,46.0,29.99,SE,125,10.0,17.0,57,0.00,,,0.00,,2013-04-23 15:53:00,
2013-04-23 12:03:00,61.0,46.0,29.99,SSW,194,8.0,22.0,57,0.00,,,0.00,,2013-04-23 16:03:00,
2013-04-23 12:12:00,61.0,46.0,29.99,SSW,194,8.0,22.0,57,0.00,,,0.00,,2013-04-23 16:12:00,
2013-04-23 12:23:00,63.0,47.0,29.99,SSE,162,10.0,15.0,56,0.00,,,0.00,,2013-04-23 16:23:00,
2013-04-23 12:34:00,64.0,47.0,29.98,South,178,12.0,19.0,55,0.00,,,0.00,,2013-04-23 16:34:00,
2013-04-23 12:43:00,64.0,47.0,29.98,South,178,12.0,19.0,55,0.00,,,0.00,,2013-04-23 16:43:00,
2013-04-23 12:53:00,65.0,48.0,29.98,SSW,192,12.0,25.0,55,0.00,,,0.00,,2013-04-23 16:53:00,
2013-04-23 13:02:00,65.0,49.0,29.97,South,190,12.0,22.0,56,0.00,,,0.00,,2013-04-23 17:02:00,
2013-04-23 13:12:00,65.0,49.0,29.97,South,190,12.0,22.0,56,0.00,,,0.00,,2013-04-23 17:12:00,
2013-04-23 13:22:00,65.0,48.0,29.96,SSW,192,13.0,20.0,55,0.00,,,0.00,,2013-04-23 17:22:00,
2013-04-23 13:32:00,65.0,48.0,29.95,SSW,194,14.0,17.0,55,0.00,,,0.00,,2013-04-23 17:32:00,
2013-04-23 13:42:00,65.0,48.0,29.95,SSW,194,14.0,17.0,55,0.00,,,0.00,,2013-04-23 17:42:00,
2013-04-23 13:53:00,65.0,48.0,29.94,SSW,194,10.0,21.0,55,0.00,,,0.00,,2013-04-23 17:53:00,
2013-04-23 14:02:00,65.0,49.0,29.93,South,178,14.0,24.0,56,0.00,,,0.00,,2013-04-23 18:02:00,
2013-04-23 14:12:00,65.0,49.0,29.93,South,178,14.0,24.0,56,0.00,,,0.00,,2013-04-23 18:12:00,
2013-04-23 14:22:00,66.0,50.0,29.92,SSW,196,14.0,20.0,56,0.00,,,0.00,,2013-04-23 18:22:00,
2013-04-23 14:32:00,66.0,50.0,29.92,SSW,198,17.0,20.0,56,0.00,,,0.00,,2013-04-23 18:32:00,
2013-04-23 14:42:00,66.0,50.0,29.92,SSW,198,17.0,20.0,56,0.00,,,0.00,,2013-04-23 18:42:00,
2013-04-23 14:52:00,66.0,50.0,29.91,SSW,194,16.0,25.0,56,0.00,,,0.00,,2013-04-23 18:52:00,
2013-04-23 15:02:00,66.0,49.0,29.90,South,184,14.0,21.0,55,0.00,,,0.00,,2013-04-23 19:02:00,
2013-04-23 15:11:00,66.0,49.0,29.90,South,184,14.0,21.0,55,0.00,,,0.00,,2013-04-23 19:11:00,
2013-04-23 15:22:00,66.0,50.0,29.89,South,181,10.0,22.0,56,0.00,,,0.00,,2013-04-23 19:22:00,
2013-04-23 15:32:00,66.0,52.0,29.89,SSW,198,7.0,20.0,60,0.00,,,0.00,,2013-04-23 19:32:00,
2013-04-23 15:42:00,66.0,52.0,29.89,SSW,198,7.0,20.0,60,0.00,,,0.00,,2013-04-23 19:42:00,
2013-04-23 15:52:00,63.0,51.0,29.91,SW,229,10.0,22.0,66,0.01,,,0.01,,2013-04-23 19:52:00,
2013-04-23 16:02:00,59.0,54.0,29.93,SW,226,14.0,25.0,83,0.05,,,0.05,,2013-04-23 20:02:00,
2013-04-23 16:11:00,59.0,54.0,29.93,SW,226,14.0,25.0,83,0.05,,,0.05,,2013-04-23 20:11:00,
2013-04-23 16:22:00,58.0,54.0,29.93,WSW,255,10.0,18.0,87,0.08,,,0.08,,2013-04-23 20:22:00,
2013-04-23 16:32:00,58.0,54.0,29.92,SW,223,10.0,18.0,88,0.09,,,0.09,,2013-04-23 20:32:00,
2013-04-23 16:42:00,58.0,54.0,29.92,SW,223,10.0,18.0,88,0.09,,,0.09,,2013-04-23 20:42:00,
2013-04-23 16:52:00,57.0,54.0,29.92,SSW,213,10.0,16.0,89,0.09,,,0.10,,2013-04-23 20:52:00,
2013-04-23 17:02:00,57.0,54.0,29.91,WSW,246,7.0,15.0,90,0.06,,,0.11,,2013-04-23 21:02:00,
2013-04-23 17:12:00,57.0,54.0,29.91,WSW,246,7.0,15.0,90,0.06,,,0.11,,2013-04-23 21:12:00,
2013-04-23 17:22:00,57.0,54.0,29.91,SW,232,4.0,10.0,91,0.04,,,0.12,,2013-04-23 21:22:00,
2013-04-23 17:33:00,57.0,55.0,29.90,SSW,200,6.0,8.0,92,0.03,,,0.12,,2013-04-23 21:33:00,
2013-04-23 17:43:00,57.0,55.0,29.90,SSW,200,6.0,8.0,92,0.03,,,0.12,,2013-04-23 21:43:00,
2013-04-23 17:53:00,57.0,55.0,29.90,SSW,205,5.0,8.0,92,0.02,,,0.12,,2013-04-23 21:53:00,
2013-04-23 18:03:00,57.0,55.0,29.89,South,175,6.0,9.0,92,0.02,,,0.13,,2013-04-23 22:03:00,
2013-04-23 18:12:00,57.0,55.0,29.89,South,175,6.0,9.0,92,0.02,,,0.13,,2013-04-23 22:12:00,
2013-04-23 18:23:00,57.0,55.0,29.88,South,186,7.0,11.0,92,0.01,,,0.13,,2013-04-23 22:23:00,
2013-04-23 18:33:00,57.0,55.0,29.88,SSW,198,8.0,15.0,92,0.01,,,0.13,,2013-04-23 22:33:00,
2013-04-23 18:42:00,57.0,55.0,29.88,SSW,198,8.0,15.0,92,0.01,,,0.13,,2013-04-23 22:42:00,
2013-04-23 18:52:00,57.0,54.0,29.87,South,184,5.0,15.0,91,0.00,,,0.13,,2013-04-23 22:52:00,
2013-04-23 19:03:00,57.0,54.0,29.87,South,176,7.0,10.0,91,0.01,,,0.14,,2013-04-23 23:03:00,
2013-04-23 19:12:00,57.0,54.0,29.87,South,176,7.0,10.0,91,0.01,,,0.14,,2013-04-23 23:12:00,
2013-04-23 19:22:00,57.0,55.0,29.87,SSW,207,7.0,10.0,92,0.03,,,0.16,,2013-04-23 23:22:00,
2013-04-23 19:32:00,56.0,54.0,29.88,SSW,200,8.0,12.0,93,0.05,,,0.18,,2013-04-23 23:32:00,
2013-04-23 19:42:00,56.0,54.0,29.88,SSW,200,8.0,12.0,93,0.05,,,0.18,,2013-04-23 23:42:00,
2013-04-23 19:52:00,56.0,54.0,29.86,South,174,7.0,10.0,94,0.09,,,0.22,,2013-04-23 23:52:00,
2013-04-23 20:02:00,56.0,54.0,29.84,SSE,153,5.0,10.0,93,0.11,,,0.25,,2013-04-24 00:02:00,
2013-04-23 20:11:00,56.0,54.0,29.84,SSE,153,5.0,10.0,93,0.11,,,0.25,,2013-04-24 00:11:00,
2013-04-23 20:22:00,56.0,54.0,29.83,South,169,3.0,7.0,94,0.11,,,0.27,,2013-04-24 00:22:00,
2013-04-23 20:32:00,55.0,53.0,29.83,SSE,168,3.0,5.0,94,0.12,,,0.30,,2013-04-24 00:32:00,
2013-04-23 20:42:00,55.0,53.0,29.83,SSE,168,3.0,5.0,94,0.12,,,0.30,,2013-04-24 00:42:00,
2013-04-23 20:52:00,55.0,53.0,29.83,SSE,149,3.0,7.0,94,0.12,,,0.34,,2013-04-24 00:52:00,
2013-04-23 21:02:00,55.0,54.0,29.83,SSE,154,2.0,4.0,95,0.11,,,0.36,,2013-04-24 01:02:00,
2013-04-23 21:11:00,55.0,54.0,29.83,SSE,154,2.0,4.0,95,0.11,,,0.36,,2013-04-24 01:11:00,
2013-04-23 21:21:00,55.0,54.0,29.82,SSE,167,0.0,3.0,95,0.17,,,0.44,,2013-04-24 01:21:00,
2013-04-23 21:32:00,55.0,54.0,29.82,SSE,167,0.0,1.0,95,0.20,,,0.50,,2013-04-24 01:32:00,
2013-04-23 21:42:00,55.0,54.0,29.82,SSE,167,0.0,1.0,95,0.20,,,0.50,,2013-04-24 01:42:00,
2013-04-23 21:52:00,55.0,54.0,29.82,SSE,167,0.0,0.0,96,0.21,,,0.55,,2013-04-24 01:52:00,
2013-04-23 22:02:00,54.0,53.0,29.82,WNW,286,0.0,4.0,96,0.25,,,0.61,,2013-04-24 02:02:00,
2013-04-23 22:19:00,54.0,53.0,29.82,WNW,286,0.0,4.0,96,0.25,,,0.61,,2013-04-24 02:19:00,
2013-04-23 22:30:00,50.0,47.0,29.84,West,268,13.0,21.0,90,0.24,,,0.68,,2013-04-24 02:30:00,
2013-04-23 22:48:00,45.0,43.0,29.85,WNW,288,10.0,19.0,93,0.20,,,0.70,,2013-04-24 02:48:00,
2013-04-23 23:10:00,44.0,43.0,29.86,WNW,297,10.0,15.0,95,0.12,,,0.73,,2013-04-24 03:10:00,
2013-04-23 23:18:00,44.0,43.0,29.86,WNW,297,10.0,15.0,95,0.12,,,0.73,,2013-04-24 03:18:00,
2013-04-23 23:41:00,43.0,42.0,29.83,North,5,6.0,11.0,95,0.16,,,0.86,,2013-04-24 03:41:00,
2013-04-23 23:51:00,43.0,42.0,29.83,North,5,6.0,11.0,95,0.16,,,0.86,,2013-04-24 03:51:00,